{"data":{"norad_id":63516,"epoch":"2026-09-20T10:26:36.667104Z","epoch_age_seconds":161260,"freshness":"FRESH","line1":"1 63516U 25071Z   26263.43514661  .00008820  00000+0  29555-3 0  9991","line2":"2 63516  53.1590 314.0834 0000993  86.1608 273.9507 15.31711263 82585","mean_motion":15.31711263,"eccentricity":9.93e-5,"inclination_deg":53.159,"raan_deg":314.0834,"arg_perigee_deg":86.1608,"mean_anomaly_deg":273.9507,"bstar":0.00029555,"rev_number":8258,"period_min":94.012496662042,"perigee_km":470.02633086275,"apogee_km":471.38651116617,"semimajor_km":6848.8434210145,"source":"CELESTRAK","updated_at":"2026-09-21T09:00:35.017960Z"}}